Satellite: NOAA-10 Catalog number: 16969 Epoch time: 11110.94278094 Element set: 0481 Inclination: 098.6228 deg RA of node: 141.4947 deg Eccentricity: 0.0012964 Arg of perigee: 035.6592 deg Mean anomaly: 324.5453 deg Mean motion: 14.27455228 rev/day Decay rate: 2.2e-07 rev/day^2 Epoch rev: 27948 Checksum: 320
Satellite: NOAA-11 Catalog number: 19531 Epoch time: 11110.77972528 Element set: 0477 Inclination: 098.7514 deg RA of node: 199.3283 deg Eccentricity: 0.0011366 Arg of perigee: 356.5299 deg Mean anomaly: 003.5788 deg Mean motion: 14.14912850 rev/day Decay rate: 1.87e-06 rev/day^2 Epoch rev: 16463 Checksum: 327
Satellite: NOAA-12 Catalog number: 21263 Epoch time: 11110.95997748 Element set: 0982 Inclination: 098.7542 deg RA of node: 128.8998 deg Eccentricity: 0.0012548 Arg of perigee: 357.8717 deg Mean anomaly: 002.2410 deg Mean motion: 14.25703040 rev/day Decay rate: 1.15e-06 rev/day^2 Epoch rev: 03625 Checksum: 304
Satellite: MET-3/5 Catalog number: 21655 Epoch time: 11111.53730679 Element set: 91 Inclination: 082.5527 deg RA of node: 090.7978 deg Eccentricity: 0.0012431 Arg of perigee: 302.9916 deg Mean anomaly: 057.0042 deg Mean motion: 13.17026083 rev/day Decay rate: 5.1e-07 rev/day^2 Epoch rev: 94626 Checksum: 285
Satellite: MET-2/21 Catalog number: 22782 Epoch time: 11110.76761730 Element set: 0076 Inclination: 082.5516 deg RA of node: 008.4365 deg Eccentricity: 0.0020898 Arg of perigee: 260.0835 deg Mean anomaly: 099.7964 deg Mean motion: 13.83658121 rev/day Decay rate: -6.0e-08 rev/day^2 Epoch rev: 89061 Checksum: 309
Satellite: OKEAN-4 Catalog number: 23317 Epoch time: 11110.94996146 Element set: 0572 Inclination: 082.5386 deg RA of node: 066.5784 deg Eccentricity: 0.0020868 Arg of perigee: 311.7593 deg Mean anomaly: 048.1834 deg Mean motion: 14.83024700 rev/day Decay rate: 6.56e-06 rev/day^2 Epoch rev: 89206 Checksum: 316
Satellite: NOAA-14 Catalog number: 23455 Epoch time: 11110.92439483 Element set: 0469 Inclination: 098.8524 deg RA of node: 194.1257 deg Eccentricity: 0.0010320 Arg of perigee: 082.1391 deg Mean anomaly: 278.0952 deg Mean motion: 14.13814507 rev/day Decay rate: 2.0e-07 rev/day^2 Epoch rev: 84098 Checksum: 293
Satellite: NOAA-15 Catalog number: 25338 Epoch time: 11111.07664369 Element set: 786 Inclination: 098.6509 deg RA of node: 098.0132 deg Eccentricity: 0.0009708 Arg of perigee: 259.1389 deg Mean anomaly: 100.8699 deg Mean motion: 14.24903124 rev/day Decay rate: 1.43e-06 rev/day^2 Epoch rev: 67259 Checksum: 325
Satellite: RESURS Catalog number: 25394 Epoch time: 11110.92110017 Element set: 0791 Inclination: 098.2997 deg RA of node: 117.0988 deg Eccentricity: 0.0002412 Arg of perigee: 050.9427 deg Mean anomaly: 309.1967 deg Mean motion: 14.24230258 rev/day Decay rate: 2.8e-07 rev/day^2 Epoch rev: 66415 Checksum: 287
Satellite: FENGYUN1 Catalog number: 25730 Epoch time: 11110.92007331 Element set: 306 Inclination: 098.8158 deg RA of node: 073.3828 deg Eccentricity: 0.0024480 Arg of perigee: 108.6986 deg Mean anomaly: 251.6824 deg Mean motion: 14.08594402 rev/day Decay rate: 6.31e-06 rev/day^2 Epoch rev: 61500 Checksum: 278
Satellite: OKEAN-0 Catalog number: 25860 Epoch time: 11110.92718843 Element set: 0303 Inclination: 097.8785 deg RA of node: 078.9674 deg Eccentricity: 0.0001320 Arg of perigee: 100.6408 deg Mean anomaly: 259.4949 deg Mean motion: 14.73759079 rev/day Decay rate: 3.23e-06 rev/day^2 Epoch rev: 63222 Checksum: 310
Satellite: NOAA-16 Catalog number: 26536 Epoch time: 11110.56324060 Element set: 0267 Inclination: 099.1442 deg RA of node: 139.9218 deg Eccentricity: 0.0010567 Arg of perigee: 190.2588 deg Mean anomaly: 169.8380 deg Mean motion: 14.12611064 rev/day Decay rate: 2.69e-06 rev/day^2 Epoch rev: 54522 Checksum: 294
Satellite: NOAA-17 Catalog number: 27453 Epoch time: 11110.71056806 Element set: 0262 Inclination: 098.3849 deg RA of node: 153.0437 deg Eccentricity: 0.0011101 Arg of perigee: 321.5880 deg Mean anomaly: 038.4495 deg Mean motion: 14.24261563 rev/day Decay rate: 2.81e-06 rev/day^2 Epoch rev: 45847 Checksum: 287
Satellite: NOAA-18 Catalog number: 28654 Epoch time: 11110.75222943 Element set: 0742 Inclination: 098.9915 deg RA of node: 061.7737 deg Eccentricity: 0.0013520 Arg of perigee: 267.7004 deg Mean anomaly: 092.2606 deg Mean motion: 14.11463091 rev/day Decay rate: 1.19e-06 rev/day^2 Epoch rev: 30482 Checksum: 287
Satellite: NOAA-19 Catalog number: 33591 Epoch time: 11111.72946520 Element set: 934 Inclination: 098.8234 deg RA of node: 052.8427 deg Eccentricity: 0.0014610 Arg of perigee: 133.2113 deg Mean anomaly: 227.0768 deg Mean motion: 14.11156389 rev/day Decay rate: 3.41e-06 rev/day^2 Epoch rev: 11342 Checksum: 275
/EX SB KEPS @ AMSAT $ORB11111.M Orbital Elements 11111.MISC
HR AMSAT ORBITAL ELEMENTS FOR MANNED AND MISCELLANEOUS SATELLITES FROM WA5QGD FORT WORTH,TX April 21, 2011 Send Subscribe/unsubscribe to KEPS at http://www.amsat.org/mailman/listinfo/keps BID: ORB11111.M TO ALL RADIO AMATEURS BT
Satellite: HUBBLE Catalog number: 20580 Epoch time: 11109.15405170 Element set: 749 Inclination: 028.4696 deg RA of node: 042.0585 deg Eccentricity: 0.0003663 Arg of perigee: 211.8262 deg Mean anomaly: 148.2086 deg Mean motion: 15.01292820 rev/day Decay rate: 1.367e-05 rev/day^2 Epoch rev: 95077 Checksum: 281
Satellite: ISS Catalog number: 25544 Epoch time: 11112.04999834 Element set: 230 Inclination: 051.6447 deg RA of node: 089.0426 deg Eccentricity: 0.0003168 Arg of perigee: 126.4628 deg Mean anomaly: 348.0957 deg Mean motion: 15.73827119 rev/day Decay rate: 3.0536e-04 rev/day^2 Epoch rev: 71206 Checksum: 300
Satellite: CO-58 Catalog number: 28895 Epoch time: 11110.70605244 Element set: 853 Inclination: 097.9739 deg RA of node: 349.2920 deg Eccentricity: 0.0018577 Arg of perigee: 044.5747 deg Mean anomaly: 315.6960 deg Mean motion: 14.60068709 rev/day Decay rate: 4.62e-06 rev/day^2 Epoch rev: 29185 Checksum: 343
Satellite: FALCON Catalog number: 30776 Epoch time: 11110.90916346 Element set: 0076 Inclination: 035.4345 deg RA of node: 335.2119 deg Eccentricity: 0.0002475 Arg of perigee: 312.4836 deg Mean anomaly: 047.5664 deg Mean motion: 15.04444410 rev/day Decay rate: 3.054e-05 rev/day^2 Epoch rev: 22641 Checksum: 265
Satellite: MAST Catalog number: 31126 Epoch time: 11111.66474208 Element set: 139 Inclination: 097.9012 deg RA of node: 142.0736 deg Eccentricity: 0.0094586 Arg of perigee: 347.4626 deg Mean anomaly: 012.4222 deg Mean motion: 14.53723452 rev/day Decay rate: 3.95e-06 rev/day^2 Epoch rev: 21287 Checksum: 278
Satellite: CAPE1 Catalog number: 31130 Epoch time: 11110.63367311 Element set: 156 Inclination: 097.9032 deg RA of node: 137.9555 deg Eccentricity: 0.0103341 Arg of perigee: 000.9166 deg Mean anomaly: 359.2211 deg Mean motion: 14.52354781 rev/day Decay rate: 2.85e-06 rev/day^2 Epoch rev: 21228 Checksum: 256
Satellite: COMPASS Catalog number: 32787 Epoch time: 11110.63329417 Element set: 0967 Inclination: 097.8527 deg RA of node: 175.5119 deg Eccentricity: 0.0015906 Arg of perigee: 008.2195 deg Mean anomaly: 351.9266 deg Mean motion: 14.82315308 rev/day Decay rate: 1.434e-05 rev/day^2 Epoch rev: 16103 Checksum: 299
Satellite: AAUSAT2 Catalog number: 32788 Epoch time: 11111.68401492 Element set: 956 Inclination: 097.8516 deg RA of node: 176.7478 deg Eccentricity: 0.0015358 Arg of perigee: 005.2640 deg Mean anomaly: 354.8801 deg Mean motion: 14.82496219 rev/day Decay rate: 1.808e-05 rev/day^2 Epoch rev: 16120 Checksum: 314
Satellite: DO-64 Catalog number: 32789 Epoch time: 11110.69824258 Element set: 0973 Inclination: 097.8613 deg RA of node: 176.6794 deg Eccentricity: 0.0015311 Arg of perigee: 007.2480 deg Mean anomaly: 352.8924 deg Mean motion: 14.82888456 rev/day Decay rate: 2.447e-05 rev/day^2 Epoch rev: 16106 Checksum: 339
Satellite: CO-66 Catalog number: 32791 Epoch time: 11111.65100447 Element set: 958 Inclination: 097.8526 deg RA of node: 176.4683 deg Eccentricity: 0.0016280 Arg of perigee: 003.8582 deg Mean anomaly: 356.2762 deg Mean motion: 14.82026676 rev/day Decay rate: 8.21e-06 rev/day^2 Epoch rev: 16113 Checksum: 309
Satellite: RS-30 Catalog number: 32953 Epoch time: 11111.72478821 Element set: 659 Inclination: 082.5037 deg RA of node: 197.8178 deg Eccentricity: 0.0019878 Arg of perigee: 147.0076 deg Mean anomaly: 213.2252 deg Mean motion: 12.43011998 rev/day Decay rate: 1.0e-07 rev/day^2 Epoch rev: 13207 Checksum: 293
Satellite: TACSAT-3 Catalog number: 35001 Epoch time: 11110.58464180 Element set: 570 Inclination: 040.4525 deg RA of node: 162.1405 deg Eccentricity: 0.0021450 Arg of perigee: 141.1860 deg Mean anomaly: 219.0502 deg Mean motion: 15.47148613 rev/day Decay rate: 1.8641e-04 rev/day^2 Epoch rev: 10815 Checksum: 238
Satellite: PHARMSAT Catalog number: 35002 Epoch time: 11110.54138145 Element set: 529 Inclination: 040.4700 deg RA of node: 159.9326 deg Eccentricity: 0.0023876 Arg of perigee: 147.7962 deg Mean anomaly: 212.4319 deg Mean motion: 15.47031453 rev/day Decay rate: 1.6316e-04 rev/day^2 Epoch rev: 10817 Checksum: 269
Satellite: HAWKSAT1 Catalog number: 35003 Epoch time: 11110.49944008 Element set: 589 Inclination: 040.4546 deg RA of node: 138.9755 deg Eccentricity: 0.0021592 Arg of perigee: 172.0230 deg Mean anomaly: 188.0941 deg Mean motion: 15.58574021 rev/day Decay rate: 5.8897e-04 rev/day^2 Epoch rev: 10840 Checksum: 297
Satellite: CP6 Catalog number: 35004 Epoch time: 11111.29478027 Element set: 594 Inclination: 040.4534 deg RA of node: 128.0970 deg Eccentricity: 0.0022670 Arg of perigee: 185.2426 deg Mean anomaly: 174.8300 deg Mean motion: 15.62598171 rev/day Decay rate: 7.7048e-04 rev/day^2 Epoch rev: 10858 Checksum: 295
